Location: *
(41.7492°S, 135.4150°W)
Time: 18:45:14
(UTC+00:00)

Sich 1 - Pass Details

Date: 20 September 2021
Orbit: 595 x 623 km, 82.5° (Epoch: 16 October)

Event Time Altitude Azimuth Distance (km) Brightness Sun altitude
Exits shadow 14:03:55 - 322° (NW) 2,473 5.7 -10.1°
Reaches altitude 10° 14:05:17 10° 315° (NW) 1,990 5.2 -9.8°
Maximum altitude 14:09:05 28° 255° (WSW) 1,175 4.0 -9.1°
Drops below altitude 10° 14:12:55 10° 195° (SSW) 1,999 5.6 -8.4°
Sets 14:15:25 0° 183° (S) 2,907 6.6 -7.9°
